Location: Ecklingerode
(51.5036°N, 10.3122°E)
Time: 01:43:50
(UTC+00:00)

Cosmos 1726 Rocket - Pass Details

Date: 29 October 2020
Orbit: 604 x 628 km, 82.5° (Epoch: 23 November)

Event Time Altitude Azimuth Distance (km) Brightness Sun altitude
Rises 17:24:28 0° 201° (SSW) 2,863 7.3 -14.1°
Reaches altitude 10° 17:26:43 10° 206° (SSW) 1,967 6.5 -14.5°
Maximum altitude 17:30:59 55° 284° (WNW) 749 4.3 -15.2°
Drops below altitude 10° 17:35:20 10° 3° (N) 1,999 6.1 -15.8°
Sets 17:37:38 0° 8° (N) 2,914 6.9 -16.2°
